Location: Dal’negorskiy Rayon
(44.6667°N, 135.5833°E)
Time: 12:17:47
(UTC+00:00)

Daily predictions for brighter satellites

Satellite Brightness Start Highest point End
(mag) Time Altitude Azimuth Time Altitude Azimuth Time Altitude Azimuth
Cosmos 192 4.1 12:04:56 74° ESE 12:04:56 74° ESE 12:09:51 10° NNE
Cosmos 494 Rocket 4.2 12:00:25 10° NNW 12:05:31 63° WSW 12:06:48 47° SSW
YAOGAN 11 4.5 12:02:13 10° N 12:06:24 60° WNW 12:07:45 39° SW
Cosmos 2341 Rocket 4.2 12:02:51 15° SSW 12:08:05 69° W 12:14:23 10° N
Cosmos 1048 Rocket 3.8 12:03:43 10° NNW 12:08:50 70° ENE 12:09:04 69° E
Cosmos 1733 Rocket 3.4 12:13:57 58° NNE 12:13:57 58° NNE 12:17:32 10° N
Lacrosse 5 rocket 2.7 12:11:13 10° W 12:13:39 28° NW 12:13:39 28° NW
Okean-O 3.1 12:13:58 48° SW 12:14:28 51° W 12:18:45 10° NNW
Cosmos 2237 Rocket 2.5 12:19:03 50° ENE 12:19:03 50° ENE 12:23:34 10° NNE
Cosmos 1980 3.8 12:19:29 58° ENE 12:19:29 58° ENE 12:24:21 10° NNE
Cosmos 2322 4.4 12:15:59 10° SW 12:21:33 53° WNW 12:27:10 10° NNE
Terra 3.8 12:21:13 15° SW 12:23:47 23° W 12:27:30 10° NW
Aureole 3 3.9 12:22:10 10° N 12:25:43 66° NNW 12:25:43 66° NNW
Cosmos 2292 Rocket 4.4 12:25:01 10° N 12:29:49 52° NE 12:29:49 52° NE
BREEZE-M DEB (TANK) 4.1 12:32:03 53° ESE 12:32:03 53° ESE 12:46:52 10° NE
USA 238 DEB 4.0 12:26:00 10° NW 12:33:26 72° NE 12:35:08 56° ESE
USA 238 4.0 12:26:11 10° NW 12:33:36 71° NE 12:35:18 56° ESE
Meteor 2-21 Rocket 4.2 12:27:31 10° N 12:33:40 81° E 12:34:00 77° SE
ASTEX 1 3.6 12:34:16 63° W 12:34:16 63° W 12:39:07 10° NNW
Okean O Rocket 3.2 12:37:47 27° WSW 12:38:13 28° W 12:41:58 10° NW
SPOT 3 Rocket 3.7 12:39:27 67° W 12:39:27 67° W 12:44:36 10° NNW
Cosmos 2242 Rocket 4.4 12:35:40 10° NNW 12:39:28 49° WNW 12:39:28 49° WNW
NOSS 0 Rocket 4.3 12:38:52 17° SW 12:43:45 64° WNW 12:49:59 10° NNE
Cosmos 1727 Rocket 3.9 12:37:52 10° N 12:44:14 80° W 12:44:51 72° SSW
Cosmos 1025 Rocket 4.4 12:43:21 10° N 12:45:47 34° N 12:45:47 34° N
COSMOS 2428 4.1 12:45:57 10° WSW 12:51:12 37° NW 12:56:30 10° NNE
Cosmos 2369 Rocket 3.7 12:47:51 10° N 12:52:10 24° NE 12:52:10 24° NE
Cosmos 2278 Rocket 2.8 12:55:22 10° NW 13:00:29 49° W 13:00:29 49° W
Ariane Rocket 3.9 13:06:32 44° WNW 13:06:32 44° WNW 13:10:39 10° NNW
NOSS 3-4 (A) 3.7 13:14:09 54° NNW 13:14:09 54° NNW 13:19:14 10° NNE
NOSS 3-4 (C) 3.7 13:14:41 54° NNW 13:14:41 54° NNW 13:19:46 10° NNE
USA 59 Rocket 2.6 13:14:36 10° NNW 13:15:10 15° NNW 13:15:10 15° NNW
Cosmos 1934 Rocket 4.2 13:21:25 69° NNW 13:21:25 69° NNW 13:26:56 10° N
Cosmos 2123 Rocket 4.2 13:14:49 10° N 13:20:25 69° NW 13:20:25 69° NW
Cosmos 1656 Rocket 4.4 13:19:48 10° NNW 13:23:40 47° NNW 13:23:40 47° NNW
SL-16 R/B 3.9 13:29:03 24° NE 13:29:03 24° NE 13:31:17 10° NNE
Cosmos 1943 Rocket 3.8 13:22:52 10° NW 13:26:57 25° W 13:26:57 25° W
SeaSat 1 4.0 13:41:28 33° NW 13:41:28 33° NW 13:44:11 10° NNW
Cosmos 2237 Rocket 4.1 14:00:45 22° WNW 14:02:24 25° NW 14:07:06 10° N
COSMOS 2455 4.4 14:04:43 10° NNW 14:09:44 26° NE 14:09:45 26° NE
Cosmos 2369 Rocket 3.8 14:31:17 10° NNW 14:33:56 28° NW 14:33:56 28° NW
ACS3 Solar Sail 3.7 14:59:48 10° NE 15:02:36 19° ENE 15:02:36 19° ENE
SL-16 R/B 4.0 15:10:51 25° NW 15:10:51 25° NW 15:14:54 10° N
CZ-2C R/B 4.1 15:17:06 34° N 15:17:06 34° N 15:20:08 10° NNW
USA 281 4.0 15:33:52 42° ENE 15:34:18 43° NE 15:40:26 10° NNW
SJ 16-02 4.3 15:30:30 10° NNW 15:30:52 12° NNW 15:30:52 12° NNW
USA 234 4.0 15:39:50 10° E 15:46:04 49° NNE 15:52:18 10° NW
Cosmos 1833 Rocket 4.3 15:58:07 28° ENE 15:58:07 28° ENE 16:01:14 10° NE
COSMOS 2455 4.4 15:50:12 10° NW 15:52:51 27° NW 15:52:51 27° NW
IDEFIX/ARIANE 42P 4.4 15:51:48 10° NE 15:54:31 24° ENE 15:54:31 24° ENE
CZ-2D R/B 4.2 16:33:48 10° NE 16:37:14 18° E 16:38:06 17° ESE
Cosmos 1697 Rocket 3.3 16:33:28 10° NNW 16:38:16 55° NNE 16:38:16 55° NNE
ACS3 Solar Sail 2.1 16:41:07 10° N 16:46:10 58° NNW 16:46:10 58° NNW
Cosmos 2098 Rocket 4.1 16:50:54 56° NNE 16:50:54 56° NNE 16:55:21 10° N
USA 267 3.4 16:46:16 10° NE 16:52:45 65° NNW 16:53:26 61° WNW
Cosmos 1980 Rocket 3.5 16:49:07 10° NNW 16:54:26 38° NE 16:59:42 10° ESE
ADEOS Rocket 3.7 16:49:07 10° NNE 16:56:20 62° E 16:58:03 51° SSE
CZ-4C R/B 4.0 17:06:21 14° ESE 17:06:21 14° ESE 17:08:38 10° ENE
ATLAS 3B R/B 3.7 16:59:39 10° NNW 17:07:15 50° NE 17:14:24 10° ESE
USA 229 DEB 4.4 17:01:12 10° NNW 17:08:38 63° NE 17:16:49 10° SE
USA 229 4.4 17:01:16 10° NNW 17:08:42 62° NE 17:16:53 10° SE
ATLAS 2AS CENTAUR R/B 2.5 17:10:15 76° SW 17:10:49 86° NW 17:17:43 10° NE
BREEZE-M DEB (TANK) 3.5 17:13:02 49° WNW 17:14:25 73° N 17:20:11 10° E
Cosmos 2082 Rocket 3.4 17:14:12 31° SE 17:15:18 33° ESE 17:20:23 10° NE
Meteor 2-10 4.1 17:12:16 10° N 17:17:16 78° N 17:17:16 78° N
USA 281 4.0 17:20:43 34° WNW 17:20:43 34° WNW 17:24:58 10° NW
MSX 4.0 17:13:43 10° N 17:19:02 56° WNW 17:19:02 56° WNW
Envisat 3.5 17:16:24 10° NNE 17:21:20 50° E 17:21:47 49° ESE
Gbstr 26 Del rocket 4.3 17:27:10 32° NNE 17:27:10 32° NNE 17:29:42 10° NE
USA 234 3.1 17:22:27 10° SE 17:28:55 66° SW 17:35:27 10° NW
H-2A R/B 3.1 17:27:32 10° NNE 17:32:12 37° E 17:33:56 29° SE
ADEOS II 3.1 17:29:17 10° NNE 17:34:13 40° E 17:36:06 30° SE
CZ-3 R/B 4.4 17:28:35 30° SSW 17:35:05 34° S 17:45:10 10° ESE
IDEFIX/ARIANE 42P 3.4 17:31:02 10° N 17:35:13 37° NW 17:35:13 37° NW
H-2A R/B 3.2 17:38:27 44° NNE 17:38:27 44° NNE 17:41:11 10° N
Resurs 1-4 Rocket 2.3 17:32:38 10° NNE 17:37:56 66° ESE 17:38:59 53° SSE
SL-8 R/B 4.2 17:38:10 48° NNW 17:38:53 54° N 17:43:32 10° E
SL-16 R/B 4.4 17:33:45 10° ESE 17:38:57 29° ENE 17:44:11 10° N
Cosmos 2279 Rocket 4.2 17:37:25 39° SSE 17:39:46 66° E 17:45:57 10° NNE
Cosmos 1833 Rocket 3.5 17:39:47 36° WNW 17:40:00 36° NW 17:45:10 10° NNE
Cosmos 1076 Rocket 4.5 17:37:59 10° NNW 17:40:48 38° NNW 17:40:48 38° NNW
Cosmos 2034 Rocket 4.3 17:44:08 46° W 17:44:34 47° WNW 17:50:40 10° N
Cosmos-2242 3.1 17:45:09 72° NNE 17:45:09 72° NNE 17:49:00 10° N
Cosmos 1452 Rocket 4.0 17:46:51 44° WNW 17:46:51 44° WNW 17:51:50 10° N
SL-4 R/B 2.8 17:48:54 41° N 17:48:54 41° N 17:52:17 10° NE
Cosmos 2058 Rocket 3.0 17:51:03 84° SSE 17:51:10 87° E 17:55:38 10° N
H-2A R/B 4.5 17:49:15 10° NE 17:52:00 17° E 17:54:43 10° SE
NOAA 11 4.2 17:47:25 10° N 17:52:45 60° WNW 17:53:21 56° W
FENGYUN 3A 4.4 17:51:51 10° N 17:56:45 36° WNW 17:57:01 36° WNW
Cosmos 2221 4.0 17:55:45 20° SE 17:57:51 32° E 18:01:33 10° NNE
ALOS 2.1 17:53:36 10° NNE 17:58:11 86° ESE 17:58:49 66° S
COSMOS 2406 4.4 17:57:37 19° SSE 18:01:04 38° ESE 18:06:20 10° NE
Cosmos 2266 Rocket 4.4 18:06:17 10° N 18:12:27 63° E 18:18:28 10° SSE
Cosmos 1092 Rocket 4.4 18:07:48 10° NNW 18:13:29 41° W 18:14:28 38° WSW
SL-24 R/B 4.4 18:09:25 10° N 18:14:25 78° W 18:16:47 34° SSW
Cosmos 909 Rocket 4.0 18:13:03 38° SW 18:15:46 81° WNW 18:22:06 10° NNE
Meteor 2-2 Rocket 4.2 18:15:09 41° SW 18:17:02 63° WNW 18:22:39 10° N
CZ-2D R/B 2.1 18:12:28 10° N 18:17:38 64° WNW 18:19:22 41° SW
KORONAS-FOTON 3.4 18:21:42 65° NW 18:21:42 65° NW 18:24:46 10° N
Cosmos 1697 Rocket 4.4 18:18:23 10° NW 18:19:55 16° WNW 18:19:55 16° WNW
Cosmos 1707 3.7 18:25:17 24° NNW 18:25:17 24° NNW 18:26:48 10° N
Cosmos 2369 3.6 18:19:50 10° NNW 18:25:33 84° WSW 18:31:15 10° SSE
Cosmos 2333 Rocket 3.7 18:21:33 10° NNW 18:26:51 39° NE 18:32:07 10° SE
Cosmos 1607 4.4 18:23:53 21° S 18:27:52 56° ESE 18:33:57 10° NE
ACS3 Solar Sail 3.7 18:26:18 10° NW 18:28:22 12° NW 18:29:44 11° WNW
Cosmos 1536 2.9 18:24:53 10° NNW 18:28:06 46° WNW 18:28:06 46° WNW
Cosmos 1812 Rocket 4.0 18:27:29 17° S 18:30:41 59° E 18:34:56 10° NNE
Cosmos 1766 4.4 18:28:33 10° NNW 18:30:03 22° NW 18:30:03 22° NW
Cosmos 1470 2.5 18:29:41 10° N 18:33:03 73° E 18:35:25 18° SSE
BREEZE-M DEB (TANK) 3.9 18:30:22 22° W 18:33:04 37° NNW 18:35:38 10° NE
USA 267 4.5 18:29:20 10° NE 18:35:05 34° NNW 18:40:47 10° WNW
Cosmos 1867 4.3 18:35:28 27° W 18:37:43 39° NW 18:42:51 10° NNE
Cosmos 1980 Rocket 2.7 18:33:12 10° NW 18:38:21 36° WSW 18:41:24 21° SSW
BREEZE-M DEB (TANK) 3.9 18:26:43 10° WNW 18:39:52 62° N 18:43:35 10° E
ARGOS 3.4 18:34:40 10° NNE 18:40:05 71° ESE 18:45:26 10° S
ADEOS Rocket 4.4 18:35:14 10° N 18:41:22 32° WNW 18:44:59 21° WSW
ARIANE 6 FM1 Upper Stage 2.5 18:38:43 10° NW 18:42:36 54° SW 18:46:29 10° SSE
Cosmos 546 4.4 18:42:38 23° WNW 18:44:49 80° SSW 18:48:32 10° ESE
CZ-4C R/B 1.8 18:51:15 28° WSW 18:53:24 62° NW 18:58:37 10° NNE
USA 276 2.0 18:54:45 39° ENE 18:54:45 39° ENE 18:56:04 10° ENE
Iridium 4 Rocket 3.1 18:52:59 18° SSW 18:55:57 57° W 19:00:24 10° N
CRYOSAT 2 4.3 18:51:07 10° S 18:56:00 87° W 19:00:55 10° N
CZ-2C R/B 3.4 18:51:57 10° NNE 18:56:47 47° E 19:01:27 10° S
ATLAS 3B R/B 3.1 18:50:45 10° NW 18:58:00 46° WSW 19:04:49 10° S
Cosmos 2082 Rocket 2.8 18:56:01 22° WSW 18:59:15 41° WNW 19:04:40 10° NNE
USA 229 DEB 4.5 18:52:28 10° NW 18:59:25 37° WSW 19:06:51 10° S
Cosmos 220 Rocket 3.9 18:56:07 14° SSW 18:59:29 74° ESE 19:03:30 10° NNE
USA 229 4.5 18:52:31 10° NW 18:59:29 38° WSW 19:06:58 10° S
Envisat 4.3 18:56:02 10° NNW 18:59:56 23° WNW 19:01:55 18° W
Cosmos 2278 4.2 18:55:50 10° NNW 19:01:32 64° ENE 19:07:11 10° SE
ATLAS 2AS CENTAUR R/B 4.0 18:57:39 12° W 19:02:40 27° NNW 19:08:18 10° NNE
Cosmos 2360 Rocket 3.4 19:00:35 10° NNW 19:06:02 46° ENE 19:11:28 10° SE
Meteor 2-9 Rocket 4.2 19:01:42 10° NNW 19:06:56 54° W 19:12:05 10° S
Cosmos 540 Rocket 4.1 19:05:44 10° S 19:10:44 57° ESE 19:15:47 10° NNE
H-2A R/B 3.0 19:07:05 10° N 19:11:21 29° WNW 19:14:26 16° WSW
USA 234 4.5 19:08:48 10° SSW 19:12:45 17° WSW 19:16:43 10° W
Gbstr 26 Del rocket 4.4 19:09:49 10° WNW 19:13:04 28° N 19:16:25 10° ENE
ADEOS II 3.1 19:09:08 10° N 19:13:35 29° WNW 19:16:56 15° WSW
Cosmos 2322 Rocket 3.0 19:08:27 10° NNW 19:14:00 57° ENE 19:19:33 10° SE
Meteor 1-28 Rocket 3.5 19:11:57 10° SSE 19:15:10 58° ENE 19:18:24 10° N
BREEZE-M DEB (TANK) 4.2 19:12:14 10° WNW 19:15:21 56° NNE 19:25:12 10° E
Cosmos 1939 Rocket 4.3 19:12:28 10° NNE 19:15:49 35° E 19:19:09 10° SSE
Resurs 1-4 Rocket 3.6 19:13:28 10° NNW 19:17:10 20° WNW 19:20:02 13° W
Cosmos 2084 4.3 19:16:20 16° WSW 19:19:05 34° NW 19:22:53 10° NNE
PAYLOAD A 4.4 19:14:42 10° NNE 19:19:32 62° ESE 19:24:12 10° S
Cosmos 1655 Rocket 4.0 19:13:26 10° N 19:19:43 80° W 19:25:55 10° S
Meteor 2-4 Rocket 4.1 19:15:49 10° S 19:21:15 66° E 19:26:36 10° NNE
SL-8 R/B 3.6 19:16:41 10° WNW 19:21:25 85° SSW 19:26:09 10° ESE
SL-16 R/B 2.1 19:16:21 10° NNW 19:22:01 73° WSW 19:27:39 10° SSE
SL-16 R/B 2.7 19:16:05 10° S 19:22:10 55° WSW 19:28:19 10° NNW
Cosmos 1503 Rocket 4.0 19:17:23 10° NNW 19:22:42 85° WSW 19:27:55 10° SSE
SL-4 R/B 3.5 19:23:19 10° WNW 19:26:41 28° N 19:29:57 10° ENE
H-2A R/B 2.4 19:23:36 10° N 19:27:29 41° WNW 19:31:15 10° SW
SL-08 RB Rocket 3.7 19:25:45 10° N 19:30:05 59° WNW 19:34:24 10° SSW
Cosmos 1271 Rocket 3.5 19:29:12 12° SW 19:31:47 27° WNW 19:34:48 10° NNW
Cosmos 1975 3.7 19:29:03 10° NW 19:31:57 23° W 19:34:51 10° SW
Meteor 1-11 Rocket 4.0 19:26:54 10° NNW 19:32:39 52° W 19:38:17 10° SSW
ALOS 4.2 19:32:41 10° NW 19:34:24 12° WNW 19:36:08 10° W
Cosmos 2221 3.8 19:32:03 12° WSW 19:34:55 21° WNW 19:38:08 10° NNW
Cosmos 1486 Rocket 4.4 19:34:09 10° NW 19:38:59 40° WSW 19:43:49 10° S
Cosmos 1766 Rocket 3.5 19:35:14 10° NNW 19:39:37 71° W 19:43:55 10° S
Cosmos 2219 Rocket 3.1 19:36:59 10° NNW 19:42:31 54° ENE 19:48:01 10° SE
BREEZE-M DEB (TANK) 3.7 19:39:31 10° WNW 19:43:27 87° SSW 19:57:27 10° ESE
Cosmos 990 Rocket 3.9 19:39:08 10° NNW 19:44:17 81° WSW 19:49:24 10° SSE
COSMOS 2406 4.0 19:40:03 10° WSW 19:45:20 37° NW 19:50:39 10° NNE
Cosmos 44 Rocket 4.0 19:42:16 10° WSW 19:47:04 43° NW 19:51:59 10° NNE
SJ-11-01 4.3 19:44:54 10° NNE 19:49:37 87° W 19:54:15 10° SSW
Cosmos 1066 Rocket 4.3 19:44:10 10° S 19:49:38 81° E 19:55:02 10° NNE
Cosmos 1763 Rocket 3.7 19:47:11 10° SW 19:52:17 56° WNW 19:57:30 10° NNE
BREEZE-M DEB (TANK) 4.1 19:47:35 10° WSW 20:06:31 75° NNW 20:10:34 10° ENE
